Weather History for Spencer, IA

Change the Weather History Date:

Monday, April 22, 2013

  Actual Average Record
Temperature  
Mean Temperature 34 °F -  
Max Temperature 39 °F 59 °F 89 °F (1980)
Min Temperature 30 °F 37 °F 23 °F (1986)
Degree Days  
Heating Degree Days 30    
Moisture  
Dew Point 32 °F    
Average Humidity 89    
Maximum Humidity 93    
Minimum Humidity 81    
Precipitation  
Precipitation 0.46 in - - ()
Sea Level Pressure  
Sea Level Pressure 30.13 in    
Wind  
Wind Speed 16 mph (NNE)    
Max Wind Speed 24 mph    
Max Gust Speed 34 mph    
Visibility 4 miles    
Events Fog , Rain , Snow    
Averages and records for this station are not official NWS values.
T = Trace of Precipitation, MM = Missing Value Source: NWS Daily Summary

Daily Weather History Graph

Daily Weather History Graph

Search for Another Location

Airport:

Trip Planner

Search our weather history database for the weather conditions in past years. The results will help you decide how hot, cold, wet, or windy it might be!

Date:

Astronomy

Apr. 22, 2013 Rise Set
Actual Time 6:27 AM CDT 8:12 PM CDT
Civil Twilight 5:56 AM CDT 8:42 PM CDT
Nautical Twilight 5:20 AM CDT 9:19 PM CDT
Astronomical Twilight 4:40 AM CDT 9:59 PM CDT
Moon 4:57 PM CDT (4/22) 4:27 AM CDT (4/22)
Length of Visible Light 14h 45m
Length of Day
13h 44m
Waxing Gibbous, 88% of the Moon is Illuminated
Apr 22
Waxing Gibbous
Apr 25
Full
May 2
Last Quarter
May 9
New
May 17
First Quarter

Hourly Weather History & Observations

Time (CDT) Temp. Windchill Dew Point Humidity Pressure Visibility Wind Dir Wind Speed Gust Speed Precip Events Conditions
12:07 AM 39.2 °F 31.2 °F 33.8 °F 81% 30.17 in 10.0 mi North 13.8 mph - N/A   Overcast
12:53 AM 37.9 °F 30.5 °F 34.0 °F 86% 30.18 in 9.0 mi NNE 11.5 mph - N/A   Overcast
1:53 AM 39.0 °F 34.0 °F 35.1 °F 86% 30.18 in 7.0 mi NE 6.9 mph - N/A   Overcast
2:53 AM 37.9 °F 31.5 °F 34.0 °F 86% 30.16 in 9.0 mi NNE 9.2 mph - N/A   Overcast
3:53 AM 37.9 °F 30.9 °F 34.0 °F 86% 30.15 in 10.0 mi NNE 10.4 mph - N/A   Overcast
4:53 AM 37.0 °F 28.1 °F 34.0 °F 89% 30.15 in 9.0 mi NNE 15.0 mph - N/A   Overcast
5:53 AM 36.0 °F 27.5 °F 34.0 °F 93% 30.16 in 4.0 mi NE 12.7 mph - N/A   Overcast
6:30 AM 35.6 °F 27.5 °F 33.8 °F 93% 30.14 in 2.5 mi NNE 11.5 mph - 0.00 in Rain Light Rain
6:51 AM 35.6 °F 25.5 °F 33.8 °F 93% 30.13 in 2.5 mi NNE 17.3 mph - 0.00 in Rain Light Rain
6:53 AM 36.0 °F 27.5 °F 34.0 °F 93% 30.16 in 2.5 mi NNE 12.7 mph - 0.00 in Rain Light Rain
7:35 AM 35.6 °F 24.8 °F 33.8 °F 93% 30.12 in 3.0 mi NE 19.6 mph - 0.00 in   Overcast
7:53 AM 36.0 °F 26.0 °F 33.1 °F 89% 30.15 in 4.0 mi NE 17.3 mph - 0.00 in   Overcast
8:30 AM 35.6 °F 25.9 °F 33.8 °F 93% 30.13 in 2.0 mi NE 16.1 mph - 0.00 in Rain Light Rain
8:51 AM 35.6 °F 25.2 °F 33.8 °F 93% 30.13 in 1.8 mi NE 18.4 mph - 0.00 in Rain Light Rain
8:53 AM 35.1 °F 25.2 °F 33.1 °F 92% 30.16 in 2.0 mi NE 16.1 mph - 0.00 in Rain Light Rain
9:11 AM 35.6 °F 24.8 °F 32.0 °F 87% 30.12 in 4.0 mi NE 19.6 mph - 0.00 in   Overcast
9:53 AM 35.1 °F 25.5 °F 33.1 °F 92% 30.14 in 2.5 mi NE 15.0 mph - 0.02 in Rain Rain
10:18 AM 35.6 °F 25.9 °F 33.8 °F 93% 30.10 in 5.0 mi NE 16.1 mph - 0.02 in Rain Light Rain
10:53 AM 36.0 °F 26.0 °F 33.1 °F 89% 30.15 in 4.0 mi NE 17.3 mph - 0.03 in Rain Light Rain
11:04 AM 35.6 °F 25.9 °F 33.8 °F 93% 30.12 in 2.0 mi NE 16.1 mph - 0.01 in Rain Light Rain
11:21 AM 35.6 °F 25.9 °F 33.8 °F 93% 30.10 in 1.5 mi NE 16.1 mph - 0.02 in Rain Light Rain
11:53 AM 36.0 °F 28.0 °F 34.0 °F 93% 30.14 in 2.0 mi NE 11.5 mph - 0.04 in Rain Light Rain
12:10 PM 35.6 °F 27.1 °F 33.8 °F 93% 30.12 in 1.8 mi North 12.7 mph - 0.00 in Snow Light Snow
12:53 PM 36.0 °F 25.6 °F 33.1 °F 89% 30.13 in 2.5 mi NNE 18.4 mph - 0.03 in Snow Light Snow
1:00 PM 35.6 °F 25.2 °F 33.8 °F 93% 30.09 in 5.0 mi NNE 18.4 mph - 0.00 in   Overcast
1:27 PM 37.4 °F 26.1 °F 33.8 °F 87% 30.06 in 10.0 mi NNE 24.2 mph 31.1 mph 0.00 in Rain Light Rain
1:39 PM 35.6 °F 24.8 °F 33.8 °F 93% 30.07 in 9.0 mi NNE 19.6 mph - 0.00 in Rain Light Rain
1:53 PM 36.0 °F 25.3 °F 32.0 °F 86% 30.11 in 5.0 mi NNE 19.6 mph - 0.01 in Rain Light Rain
2:53 PM 36.0 °F 24.4 °F 32.0 °F 86% 30.09 in 9.0 mi NNE 23.0 mph 31.1 mph 0.02 in   Overcast
3:53 PM 35.1 °F 24.1 °F 32.0 °F 89% 30.08 in 4.0 mi NNE 19.6 mph 27.6 mph 0.03 in Rain Rain
4:53 PM 34.0 °F 25.0 °F 30.9 °F 89% 30.10 in 1.8 mi North 12.7 mph 26.5 mph 0.05 in Snow Light Snow
5:01 PM 33.8 °F 21.6 °F 30.2 °F 87% 30.06 in 2.0 mi North 23.0 mph 29.9 mph 0.01 in Snow Light Snow
5:08 PM 33.8 °F 22.8 °F 30.2 °F 87% 30.06 in 3.0 mi North 18.4 mph 29.9 mph 0.02 in Snow Light Snow
5:16 PM 33.8 °F 22.5 °F 30.2 °F 87% 30.07 in 1.8 mi North 19.6 mph 27.6 mph 0.02 in Snow Light Snow
5:32 PM 33.8 °F 22.5 °F 30.2 °F 87% 30.07 in 1.0 mi North 19.6 mph 27.6 mph 0.04 in   Overcast
5:45 PM 33.8 °F 22.5 °F 30.2 °F 87% 30.08 in 0.8 mi North 19.6 mph 26.5 mph 0.05 in   Overcast
5:53 PM 33.1 °F 20.6 °F 30.9 °F 92% 30.11 in 0.5 mi North 23.0 mph 29.9 mph 0.06 in Fog Fog
6:22 PM 32.0 °F 19.2 °F 30.2 °F 93% 30.07 in 0.2 mi North 23.0 mph 31.1 mph 0.03 in Fog Fog
6:34 PM 32.0 °F 18.9 °F 30.2 °F 93% 30.07 in 0.5 mi North 24.2 mph 32.2 mph 0.04 in Fog Fog
6:42 PM 32.0 °F 19.8 °F 30.2 °F 93% 30.07 in 0.2 mi North 20.7 mph 29.9 mph 0.05 in Fog Fog
6:53 PM 32.0 °F 18.9 °F 30.0 °F 92% 30.11 in 0.2 mi North 24.2 mph 34.5 mph 0.07 in Fog Fog
7:53 PM 32.0 °F 19.2 °F 28.9 °F 88% 30.14 in 0.2 mi North 23.0 mph 29.9 mph 0.07 in Fog Fog
8:09 PM 32.0 °F 20.5 °F 28.4 °F 87% 30.10 in 0.5 mi North 18.4 mph 29.9 mph 0.02 in Fog Fog
8:27 PM 32.0 °F 19.5 °F 28.4 °F 87% 30.13 in 1.8 mi North 21.9 mph 27.6 mph 0.03 in   Overcast
8:33 PM 32.0 °F 20.1 °F 28.4 °F 87% 30.14 in 3.0 mi North 19.6 mph 28.8 mph 0.03 in   Overcast
8:43 PM 32.0 °F 18.9 °F 28.4 °F 87% 30.14 in 4.0 mi North 24.2 mph 31.1 mph 0.03 in   Overcast
8:53 PM 32.0 °F 19.2 °F 28.0 °F 85% 30.19 in 4.0 mi North 23.0 mph 34.5 mph 0.03 in   Overcast
9:53 PM 30.9 °F 18.4 °F 28.0 °F 89% 30.21 in 4.0 mi North 20.7 mph 31.1 mph N/A   Overcast
10:53 PM 30.9 °F 18.7 °F 27.0 °F 85% 30.22 in 9.0 mi North 19.6 mph 28.8 mph N/A   Overcast
11:46 PM 30.2 °F 16.8 °F 26.6 °F 86% 30.17 in 9.0 mi North 23.0 mph 29.9 mph 0.00 in Snow Light Snow
11:53 PM 30.0 °F 17.2 °F 27.0 °F 88% 30.22 in 9.0 mi North 20.7 mph - 0.00 in Snow Light Snow